Location: Newark
(44.1667°N, 8.2500°E)
Time: 02:40:35
(UTC+00:00)

Vanguard 2 - Pass Details

Date: 06 December 2019
Orbit: 553 x 2938 km, 32.9° (Epoch: 23 January)

Event Time Altitude Azimuth Distance (km) Brightness Sun altitude
Exits shadow 00:44:19 25° 119° (ESE) 4,584 11.3 -61.9°
Drops below altitude 10° 00:52:33 10° 93° (E) 5,587 12.1 -60.8°
Sets 00:57:24 0° 84° (E) 6,400 12.6 -60.1°
